owner,sensor,date,latitude,longitude,vertical_datum,mass_concentration_of_oxygen_in_sea_water,qcFlag 
DISL,ioos:station:DISL:PPTA:1,2019-07-01T00:00:00Z,30.2791,-87.5561,1.448,0.0,11111222 
DISL,ioos:station:DISL:PPTA:1,2019-07-01T01:00:00Z,30.2791,-87.5561,1.438,0.0,11111222 
DISL,ioos:station:DISL:PPTA:1,2019-07-01T02:00:00Z,30.2791,-87.5561,1.464,0.0,11111222 
DISL,ioos:station:DISL:PPTA:1,2019-07-01T03:00:00Z,30.2791,-87.5561,1.496,0.0,11111222 
DISL,ioos:station:DISL:PPTA:1,2019-07-01T04:00:00Z,30.2791,-87.5561,1.526,0.0,11111222 
DISL,ioos:station:DISL:PPTA:1,2019-07-01T05:00:00Z,30.2791,-87.5561,1.536,0.0,11111222 
DISL,ioos:station:DISL:PPTA:1,2019-07-01T06:00:00Z,30.2791,-87.5561,1.557,0.0,11111222 
DISL,ioos:station:DISL:PPTA:1,2019-07-01T07:00:00Z,30.2791,-87.5561,1.573,0.0,11111222 
DISL,ioos:station:DISL:PPTA:1,2019-07-01T08:00:00Z,30.2791,-87.5561,1.632,0.0,11111222 
DISL,ioos:station:DISL:PPTA:1,2019-07-01T09:00:00Z,30.2791,-87.5561,1.723,0.0,11111222 
DISL,ioos:station:DISL:PPTA:1,2019-07-01T10:00:00Z,30.2791,-87.5561,1.766,0.0,11111222 
DISL,ioos:station:DISL:PPTA:1,2019-07-01T10:30:00Z,30.2791,-87.5561,1.811,0.0,11111222 
DISL,ioos:station:DISL:PPTA:1,2019-07-01T13:00:00Z,30.2791,-87.5561,2.002,0.0,11111222 
DISL,ioos:station:DISL:PPTA:1,2019-07-01T14:00:00Z,30.2791,-87.5561,2.006,0.0,11111222 
DISL,ioos:station:DISL:PPTA:1,2019-07-01T18:00:00Z,30.2791,-87.5561,2.124,0.0,11111222 
DISL,ioos:station:DISL:PPTA:1,2019-07-01T19:00:00Z,30.2791,-87.5561,1.983,0.0,11111222 
DISL,ioos:station:DISL:PPTA:1,2019-07-01T20:00:00Z,30.2791,-87.5561,1.938,0.0,11111222 
DISL,ioos:station:DISL:PPTA:1,2019-07-01T21:00:00Z,30.2791,-87.5561,2.02,0.0,11111222 
DISL,ioos:station:DISL:PPTA:1,2019-07-01T22:00:00Z,30.2791,-87.5561,2.04,0.0,11111222 
DISL,ioos:station:DISL:PPTA:1,2019-07-01T23:00:00Z,30.2791,-87.5561,1.996,0.0,11111222 
DISL,ioos:station:DISL:PPTA:1,2019-07-02T00:00:00Z,30.2791,-87.5561,1.873,0.0,11111222 
DISL,ioos:station:DISL:PPTA:1,2019-07-02T01:00:00Z,30.2791,-87.5561,2.396,0.0,11111222 
DISL,ioos:station:DISL:PPTA:1,2019-07-02T02:00:00Z,30.2791,-87.5561,2.586,0.0,11111222 
DISL,ioos:station:DISL:PPTA:1,2019-07-02T03:00:00Z,30.2791,-87.5561,2.052,0.0,11111222 
DISL,ioos:station:DISL:PPTA:1,2019-07-02T04:00:00Z,30.2791,-87.5561,2.576,0.0,11111222 
DISL,ioos:station:DISL:PPTA:1,2019-07-02T05:00:00Z,30.2791,-87.5561,2.632,0.0,11111222 
DISL,ioos:station:DISL:PPTA:1,2019-07-02T06:00:00Z,30.2791,-87.5561,2.737,0.0,11111222 
DISL,ioos:station:DISL:PPTA:1,2019-07-02T07:00:00Z,30.2791,-87.5561,2.255,0.0,11111222 
DISL,ioos:station:DISL:PPTA:1,2019-07-02T08:00:00Z,30.2791,-87.5561,2.469,0.0,11111222 
DISL,ioos:station:DISL:PPTA:1,2019-07-02T09:00:00Z,30.2791,-87.5561,2.379,0.0,11111222 
DISL,ioos:station:DISL:PPTA:1,2019-07-02T10:00:00Z,30.2791,-87.5561,2.642,0.0,11111222 
DISL,ioos:station:DISL:PPTA:1,2019-07-02T11:00:00Z,30.2791,-87.5561,2.815,0.0,11111222 
DISL,ioos:station:DISL:PPTA:1,2019-07-02T12:00:00Z,30.2791,-87.5561,3.13,0.0,11111222 
DISL,ioos:station:DISL:PPTA:1,2019-07-02T13:00:00Z,30.2791,-87.5561,3.119,0.0,11111222 
DISL,ioos:station:DISL:PPTA:1,2019-07-02T14:00:00Z,30.2791,-87.5561,3.242,0.0,11111222 
DISL,ioos:station:DISL:PPTA:1,2019-07-02T15:00:00Z,30.2791,-87.5561,3.189,0.0,11111222 
DISL,ioos:station:DISL:PPTA:1,2019-07-02T16:00:00Z,30.2791,-87.5561,3.285,0.0,11111222 
DISL,ioos:station:DISL:PPTA:1,2019-07-02T17:00:00Z,30.2791,-87.5561,3.374,0.0,11111222 
DISL,ioos:station:DISL:PPTA:1,2019-07-02T18:00:00Z,30.2791,-87.5561,3.539,0.0,11111222 
DISL,ioos:station:DISL:PPTA:1,2019-07-02T19:00:00Z,30.2791,-87.5561,3.711,0.0,11111222 
DISL,ioos:station:DISL:PPTA:1,2019-07-02T20:00:00Z,30.2791,-87.5561,3.773,0.0,11111222 
DISL,ioos:station:DISL:PPTA:1,2019-07-02T21:00:00Z,30.2791,-87.5561,3.642,0.0,11111222 
DISL,ioos:station:DISL:PPTA:1,2019-07-02T22:00:00Z,30.2791,-87.5561,3.953,0.0,11111222 
DISL,ioos:station:DISL:PPTA:1,2019-07-02T23:00:00Z,30.2791,-87.5561,4.089,0.0,11111222 
DISL,ioos:station:DISL:PPTA:1,2019-07-03T00:00:00Z,30.2791,-87.5561,3.886,0.0,11111222 
DISL,ioos:station:DISL:PPTA:1,2019-07-03T01:00:00Z,30.2791,-87.5561,5.591,0.0,11111222 
DISL,ioos:station:DISL:PPTA:1,2019-07-03T02:00:00Z,30.2791,-87.5561,5.437,0.0,11111222 
DISL,ioos:station:DISL:PPTA:1,2019-07-03T03:00:00Z,30.2791,-87.5561,5.404,0.0,11111222 
DISL,ioos:station:DISL:PPTA:1,2019-07-03T04:00:00Z,30.2791,-87.5561,5.922,0.0,11111222 
DISL,ioos:station:DISL:PPTA:1,2019-07-03T05:00:00Z,30.2791,-87.5561,5.795,0.0,11111222 
DISL,ioos:station:DISL:PPTA:1,2019-07-03T06:00:00Z,30.2791,-87.5561,6.181,0.0,11111222 
DISL,ioos:station:DISL:PPTA:1,2019-07-03T07:00:00Z,30.2791,-87.5561,5.291,0.0,11111222 
DISL,ioos:station:DISL:PPTA:1,2019-07-03T08:00:00Z,30.2791,-87.5561,4.747,0.0,11111222 
DISL,ioos:station:DISL:PPTA:1,2019-07-03T09:00:00Z,30.2791,-87.5561,5.412,0.0,11111222 
DISL,ioos:station:DISL:PPTA:1,2019-07-03T10:00:00Z,30.2791,-87.5561,4.869,0.0,11111222 
DISL,ioos:station:DISL:PPTA:1,2019-07-03T11:00:00Z,30.2791,-87.5561,4.878,0.0,11111222 
DISL,ioos:station:DISL:PPTA:1,2019-07-03T12:00:00Z,30.2791,-87.5561,4.345,0.0,11111222 
DISL,ioos:station:DISL:PPTA:1,2019-07-03T13:00:00Z,30.2791,-87.5561,5.089,0.0,11111222 
DISL,ioos:station:DISL:PPTA:1,2019-07-03T14:00:00Z,30.2791,-87.5561,4.949,0.0,11111222 
DISL,ioos:station:DISL:PPTA:1,2019-07-03T15:00:00Z,30.2791,-87.5561,4.727,0.0,11111222 
DISL,ioos:station:DISL:PPTA:1,2019-07-03T16:00:00Z,30.2791,-87.5561,5.23,0.0,11111222 
DISL,ioos:station:DISL:PPTA:1,2019-07-03T17:00:00Z,30.2791,-87.5561,4.966,0.0,11111222 
DISL,ioos:station:DISL:PPTA:1,2019-07-03T18:00:00Z,30.2791,-87.5561,4.991,0.0,11111222 
DISL,ioos:station:DISL:PPTA:1,2019-07-03T19:00:00Z,30.2791,-87.5561,4.086,0.0,11111222 
DISL,ioos:station:DISL:PPTA:1,2019-07-03T20:00:00Z,30.2791,-87.5561,5.107,0.0,11111222 
DISL,ioos:station:DISL:PPTA:1,2019-07-03T21:00:00Z,30.2791,-87.5561,4.547,0.0,11111222 
DISL,ioos:station:DISL:PPTA:1,2019-07-03T22:00:00Z,30.2791,-87.5561,4.422,0.0,11111222 
DISL,ioos:station:DISL:PPTA:1,2019-07-03T23:00:00Z,30.2791,-87.5561,3.701,0.0,11111222 
DISL,ioos:station:DISL:PPTA:1,2019-07-04T00:00:00Z,30.2791,-87.5561,4.908,0.0,11111222 
DISL,ioos:station:DISL:PPTA:1,2019-07-04T01:00:00Z,30.2791,-87.5561,4.425,0.0,11111222 
DISL,ioos:station:DISL:PPTA:1,2019-07-04T02:00:00Z,30.2791,-87.5561,4.228,0.0,11111222 
DISL,ioos:station:DISL:PPTA:1,2019-07-04T03:00:00Z,30.2791,-87.5561,3.948,0.0,11111222 
DISL,ioos:station:DISL:PPTA:1,2019-07-04T04:00:00Z,30.2791,-87.5561,4.907,0.0,11111222 
DISL,ioos:station:DISL:PPTA:1,2019-07-04T05:00:00Z,30.2791,-87.5561,4.542,0.0,11111222 
DISL,ioos:station:DISL:PPTA:1,2019-07-04T06:00:00Z,30.2791,-87.5561,4.536,0.0,11111222 
DISL,ioos:station:DISL:PPTA:1,2019-07-04T07:00:00Z,30.2791,-87.5561,4.443,0.0,11111222 
DISL,ioos:station:DISL:PPTA:1,2019-07-04T08:00:00Z,30.2791,-87.5561,4.355,0.0,11111222 
DISL,ioos:station:DISL:PPTA:1,2019-07-04T09:00:00Z,30.2791,-87.5561,5.035,0.0,11111222 
DISL,ioos:station:DISL:PPTA:1,2019-07-04T10:00:00Z,30.2791,-87.5561,4.598,0.0,11111222 
DISL,ioos:station:DISL:PPTA:1,2019-07-04T11:00:00Z,30.2791,-87.5561,4.496,0.0,11111222 
DISL,ioos:station:DISL:PPTA:1,2019-07-04T12:00:00Z,30.2791,-87.5561,4.388,0.0,11111222 
DISL,ioos:station:DISL:PPTA:1,2019-07-04T13:00:00Z,30.2791,-87.5561,4.158,0.0,11111222 
DISL,ioos:station:DISL:PPTA:1,2019-07-04T14:00:00Z,30.2791,-87.5561,4.198,0.0,11111222 
DISL,ioos:station:DISL:PPTA:1,2019-07-04T15:00:00Z,30.2791,-87.5561,4.44,0.0,11111222 
DISL,ioos:station:DISL:PPTA:1,2019-07-04T16:00:00Z,30.2791,-87.5561,4.289,0.0,11111222 
DISL,ioos:station:DISL:PPTA:1,2019-07-04T17:00:00Z,30.2791,-87.5561,4.223,0.0,11111222 
DISL,ioos:station:DISL:PPTA:1,2019-07-04T18:00:00Z,30.2791,-87.5561,4.049,0.0,11111222 
DISL,ioos:station:DISL:PPTA:1,2019-07-04T19:00:00Z,30.2791,-87.5561,3.721,0.0,11111222 
DISL,ioos:station:DISL:PPTA:1,2019-07-04T20:00:00Z,30.2791,-87.5561,4.464,0.0,11111222 
DISL,ioos:station:DISL:PPTA:1,2019-07-04T21:00:00Z,30.2791,-87.5561,4.309,0.0,11111222 
DISL,ioos:station:DISL:PPTA:1,2019-07-04T22:00:00Z,30.2791,-87.5561,4.257,0.0,11111222 
DISL,ioos:station:DISL:PPTA:1,2019-07-04T23:00:00Z,30.2791,-87.5561,4.199,0.0,11111222 
DISL,ioos:station:DISL:PPTA:1,2019-07-05T00:00:00Z,30.2791,-87.5561,4.032,0.0,11111222 
DISL,ioos:station:DISL:PPTA:1,2019-07-05T01:00:00Z,30.2791,-87.5561,3.986,0.0,11111222 
DISL,ioos:station:DISL:PPTA:1,2019-07-05T02:00:00Z,30.2791,-87.5561,3.57,0.0,11111222 
DISL,ioos:station:DISL:PPTA:1,2019-07-05T03:00:00Z,30.2791,-87.5561,3.398,0.0,11111222 
DISL,ioos:station:DISL:PPTA:1,2019-07-05T04:00:00Z,30.2791,-87.5561,3.464,0.0,11111222 
DISL,ioos:station:DISL:PPTA:1,2019-07-05T05:00:00Z,30.2791,-87.5561,3.495,0.0,11111222 
DISL,ioos:station:DISL:PPTA:1,2019-07-05T06:00:00Z,30.2791,-87.5561,4.226,0.0,11111222 
DISL,ioos:station:DISL:PPTA:1,2019-07-05T07:00:00Z,30.2791,-87.5561,4.187,0.0,11111222 
DISL,ioos:station:DISL:PPTA:1,2019-07-05T08:00:00Z,30.2791,-87.5561,3.854,0.0,11111222 
DISL,ioos:station:DISL:PPTA:1,2019-07-05T09:00:00Z,30.2791,-87.5561,3.568,0.0,11111222 
DISL,ioos:station:DISL:PPTA:1,2019-07-05T10:00:00Z,30.2791,-87.5561,3.499,0.0,11111222 
DISL,ioos:station:DISL:PPTA:1,2019-07-05T11:00:00Z,30.2791,-87.5561,3.746,0.0,11111222 
DISL,ioos:station:DISL:PPTA:1,2019-07-05T12:00:00Z,30.2791,-87.5561,3.818,0.0,11111222 
DISL,ioos:station:DISL:PPTA:1,2019-07-05T13:00:00Z,30.2791,-87.5561,3.748,0.0,11111222 
DISL,ioos:station:DISL:PPTA:1,2019-07-05T14:00:00Z,30.2791,-87.5561,3.372,0.0,11111222 
DISL,ioos:station:DISL:PPTA:1,2019-07-05T15:00:00Z,30.2791,-87.5561,3.827,0.0,11111222 
DISL,ioos:station:DISL:PPTA:1,2019-07-05T15:30:00Z,30.2791,-87.5561,3.598,0.0,11111222 
DISL,ioos:station:DISL:PPTA:1,2019-07-05T17:00:00Z,30.2791,-87.5561,3.702,0.0,11111222 
DISL,ioos:station:DISL:PPTA:1,2019-07-05T18:00:00Z,30.2791,-87.5561,4.637,0.0,11111222 
DISL,ioos:station:DISL:PPTA:1,2019-07-05T19:00:00Z,30.2791,-87.5561,3.858,0.0,11111222 
DISL,ioos:station:DISL:PPTA:1,2019-07-05T20:00:00Z,30.2791,-87.5561,4.128,0.0,11111222 
DISL,ioos:station:DISL:PPTA:1,2019-07-05T21:00:00Z,30.2791,-87.5561,3.591,0.0,11111222 
DISL,ioos:station:DISL:PPTA:1,2019-07-05T22:00:00Z,30.2791,-87.5561,4.338,0.0,11111222 
DISL,ioos:station:DISL:PPTA:1,2019-07-05T23:00:00Z,30.2791,-87.5561,3.214,0.0,11111222 
DISL,ioos:station:DISL:PPTA:1,2019-07-06T00:00:00Z,30.2791,-87.5561,3.704,0.0,11111222 
DISL,ioos:station:DISL:PPTA:1,2019-07-06T01:00:00Z,30.2791,-87.5561,3.754,0.0,11111222 
DISL,ioos:station:DISL:PPTA:1,2019-07-06T02:00:00Z,30.2791,-87.5561,2.97,0.0,11111222 
DISL,ioos:station:DISL:PPTA:1,2019-07-06T03:00:00Z,30.2791,-87.5561,2.859,0.0,11111222 
DISL,ioos:station:DISL:PPTA:1,2019-07-06T04:00:00Z,30.2791,-87.5561,3.072,0.0,11111222 
DISL,ioos:station:DISL:PPTA:1,2019-07-06T05:00:00Z,30.2791,-87.5561,2.876,0.0,11111222 
DISL,ioos:station:DISL:PPTA:1,2019-07-06T06:00:00Z,30.2791,-87.5561,3.198,0.0,11111222 
DISL,ioos:station:DISL:PPTA:1,2019-07-06T07:00:00Z,30.2791,-87.5561,3.203,0.0,11111222 
DISL,ioos:station:DISL:PPTA:1,2019-07-06T08:00:00Z,30.2791,-87.5561,3.046,0.0,11111222 
DISL,ioos:station:DISL:PPTA:1,2019-07-06T09:00:00Z,30.2791,-87.5561,3.168,0.0,11111222 
DISL,ioos:station:DISL:PPTA:1,2019-07-06T10:00:00Z,30.2791,-87.5561,3.121,0.0,11111222 
DISL,ioos:station:DISL:PPTA:1,2019-07-06T11:00:00Z,30.2791,-87.5561,3.003,0.0,11111222 
DISL,ioos:station:DISL:PPTA:1,2019-07-06T12:00:00Z,30.2791,-87.5561,3.426,0.0,11111222 
DISL,ioos:station:DISL:PPTA:1,2019-07-06T13:00:00Z,30.2791,-87.5561,3.047,0.0,11111222 
DISL,ioos:station:DISL:PPTA:1,2019-07-06T14:00:00Z,30.2791,-87.5561,3.64,0.0,11111222 
DISL,ioos:station:DISL:PPTA:1,2019-07-06T15:00:00Z,30.2791,-87.5561,3.542,0.0,11111222 
DISL,ioos:station:DISL:PPTA:1,2019-07-06T16:00:00Z,30.2791,-87.5561,4.215,0.0,11111222 
DISL,ioos:station:DISL:PPTA:1,2019-07-06T17:00:00Z,30.2791,-87.5561,2.993,0.0,11111222 
DISL,ioos:station:DISL:PPTA:1,2019-07-06T18:00:00Z,30.2791,-87.5561,4.053,0.0,11111222 
DISL,ioos:station:DISL:PPTA:1,2019-07-06T19:00:00Z,30.2791,-87.5561,3.617,0.0,11111222 
DISL,ioos:station:DISL:PPTA:1,2019-07-06T20:00:00Z,30.2791,-87.5561,6.429,0.0,11111222 
DISL,ioos:station:DISL:PPTA:1,2019-07-06T21:00:00Z,30.2791,-87.5561,5.538,0.0,11111222 
DISL,ioos:station:DISL:PPTA:1,2019-07-06T22:00:00Z,30.2791,-87.5561,4.613,0.0,11111222 
DISL,ioos:station:DISL:PPTA:1,2019-07-06T23:00:00Z,30.2791,-87.5561,4.998,0.0,11111222 
DISL,ioos:station:DISL:PPTA:1,2019-07-07T00:00:00Z,30.2791,-87.5561,4.506,0.0,11111222 
DISL,ioos:station:DISL:PPTA:1,2019-07-07T01:00:00Z,30.2791,-87.5561,4.458,0.0,11111222 
DISL,ioos:station:DISL:PPTA:1,2019-07-07T02:00:00Z,30.2791,-87.5561,5.032,0.0,11111222 
DISL,ioos:station:DISL:PPTA:1,2019-07-07T03:00:00Z,30.2791,-87.5561,4.298,0.0,11111222 
DISL,ioos:station:DISL:PPTA:1,2019-07-07T04:00:00Z,30.2791,-87.5561,3.821,0.0,11111222 
DISL,ioos:station:DISL:PPTA:1,2019-07-07T05:00:00Z,30.2791,-87.5561,2.846,0.0,11111222 
DISL,ioos:station:DISL:PPTA:1,2019-07-07T06:00:00Z,30.2791,-87.5561,2.94,0.0,11111222 
DISL,ioos:station:DISL:PPTA:1,2019-07-07T07:00:00Z,30.2791,-87.5561,3.845,0.0,11111222 
DISL,ioos:station:DISL:PPTA:1,2019-07-07T08:00:00Z,30.2791,-87.5561,2.868,0.0,11111222 
DISL,ioos:station:DISL:PPTA:1,2019-07-07T09:00:00Z,30.2791,-87.5561,3.749,0.0,11111222 
DISL,ioos:station:DISL:PPTA:1,2019-07-07T10:00:00Z,30.2791,-87.5561,3.242,0.0,11111222 
DISL,ioos:station:DISL:PPTA:1,2019-07-07T11:00:00Z,30.2791,-87.5561,3.202,0.0,11111222 
DISL,ioos:station:DISL:PPTA:1,2019-07-07T12:00:00Z,30.2791,-87.5561,3.389,0.0,11111222 
DISL,ioos:station:DISL:PPTA:1,2019-07-07T13:00:00Z,30.2791,-87.5561,4.196,0.0,11111222 
DISL,ioos:station:DISL:PPTA:1,2019-07-07T14:00:00Z,30.2791,-87.5561,4.117,0.0,11111222 
DISL,ioos:station:DISL:PPTA:1,2019-07-07T15:00:00Z,30.2791,-87.5561,3.099,0.0,11111222 
DISL,ioos:station:DISL:PPTA:1,2019-07-07T16:00:00Z,30.2791,-87.5561,3.2,0.0,11111222 
DISL,ioos:station:DISL:PPTA:1,2019-07-07T17:00:00Z,30.2791,-87.5561,3.006,0.0,11111222 
DISL,ioos:station:DISL:PPTA:1,2019-07-07T18:00:00Z,30.2791,-87.5561,3.467,0.0,11111222 
DISL,ioos:station:DISL:PPTA:1,2019-07-07T19:00:00Z,30.2791,-87.5561,4.216,0.0,11111222 
DISL,ioos:station:DISL:PPTA:1,2019-07-07T20:00:00Z,30.2791,-87.5561,2.919,0.0,11111222 
DISL,ioos:station:DISL:PPTA:1,2019-07-07T21:00:00Z,30.2791,-87.5561,3.193,0.0,11111222 
DISL,ioos:station:DISL:PPTA:1,2019-07-07T22:00:00Z,30.2791,-87.5561,3.187,0.0,11111222 
DISL,ioos:station:DISL:PPTA:1,2019-07-07T23:00:00Z,30.2791,-87.5561,3.954,0.0,11111222 
DISL,ioos:station:DISL:PPTA:1,2019-07-08T00:00:00Z,30.2791,-87.5561,3.852,0.0,11111222 
DISL,ioos:station:DISL:PPTA:1,2019-07-08T01:00:00Z,30.2791,-87.5561,3.739,0.0,11111222 
DISL,ioos:station:DISL:PPTA:1,2019-07-08T02:00:00Z,30.2791,-87.5561,3.677,0.0,11111222 
DISL,ioos:station:DISL:PPTA:1,2019-07-08T03:00:00Z,30.2791,-87.5561,4.224,0.0,11111222 
DISL,ioos:station:DISL:PPTA:1,2019-07-08T04:00:00Z,30.2791,-87.5561,4.621,0.0,11111222 
DISL,ioos:station:DISL:PPTA:1,2019-07-08T05:00:00Z,30.2791,-87.5561,3.7,0.0,11111222 
DISL,ioos:station:DISL:PPTA:1,2019-07-08T06:00:00Z,30.2791,-87.5561,3.398,0.0,11111222 
DISL,ioos:station:DISL:PPTA:1,2019-07-08T07:00:00Z,30.2791,-87.5561,3.272,0.0,11111222 
DISL,ioos:station:DISL:PPTA:1,2019-07-08T08:00:00Z,30.2791,-87.5561,3.079,0.0,11111222 
DISL,ioos:station:DISL:PPTA:1,2019-07-08T09:00:00Z,30.2791,-87.5561,2.984,0.0,11111222 
DISL,ioos:station:DISL:PPTA:1,2019-07-08T10:00:00Z,30.2791,-87.5561,2.946,0.0,11111222 
DISL,ioos:station:DISL:PPTA:1,2019-07-08T11:00:00Z,30.2791,-87.5561,3.163,0.0,11111222 
DISL,ioos:station:DISL:PPTA:1,2019-07-08T12:00:00Z,30.2791,-87.5561,2.92,0.0,11111222 
DISL,ioos:station:DISL:PPTA:1,2019-07-08T13:00:00Z,30.2791,-87.5561,2.949,0.0,11111222 
DISL,ioos:station:DISL:PPTA:1,2019-07-08T14:00:00Z,30.2791,-87.5561,3.214,0.0,11111222 
DISL,ioos:station:DISL:PPTA:1,2019-07-08T15:00:00Z,30.2791,-87.5561,3.319,0.0,11111222 
DISL,ioos:station:DISL:PPTA:1,2019-07-08T16:00:00Z,30.2791,-87.5561,3.074,0.0,11111222 
DISL,ioos:station:DISL:PPTA:1,2019-07-08T17:00:00Z,30.2791,-87.5561,3.188,0.0,11111222 
DISL,ioos:station:DISL:PPTA:1,2019-07-08T18:00:00Z,30.2791,-87.5561,3.14,0.0,11111222 
DISL,ioos:station:DISL:PPTA:1,2019-07-08T19:00:00Z,30.2791,-87.5561,2.832,0.0,11111222 
DISL,ioos:station:DISL:PPTA:1,2019-07-08T20:00:00Z,30.2791,-87.5561,2.681,0.0,11111222 
DISL,ioos:station:DISL:PPTA:1,2019-07-08T21:00:00Z,30.2791,-87.5561,2.628,0.0,11111222 
DISL,ioos:station:DISL:PPTA:1,2019-07-08T22:00:00Z,30.2791,-87.5561,3.073,0.0,11111222 
DISL,ioos:station:DISL:PPTA:1,2019-07-08T23:00:00Z,30.2791,-87.5561,3.559,0.0,11111222 
DISL,ioos:station:DISL:PPTA:1,2019-07-09T00:00:00Z,30.2791,-87.5561,3.33,0.0,11111222 
DISL,ioos:station:DISL:PPTA:1,2019-07-09T01:00:00Z,30.2791,-87.5561,3.485,0.0,11111222 
DISL,ioos:station:DISL:PPTA:1,2019-07-09T02:00:00Z,30.2791,-87.5561,3.538,0.0,11111222 
DISL,ioos:station:DISL:PPTA:1,2019-07-09T03:00:00Z,30.2791,-87.5561,2.903,0.0,11111222 
DISL,ioos:station:DISL:PPTA:1,2019-07-09T04:00:00Z,30.2791,-87.5561,3.144,0.0,11111222 
DISL,ioos:station:DISL:PPTA:1,2019-07-09T05:00:00Z,30.2791,-87.5561,2.855,0.0,11111222 
DISL,ioos:station:DISL:PPTA:1,2019-07-09T05:30:00Z,30.2791,-87.5561,2.83,0.0,11111222 
DISL,ioos:station:DISL:PPTA:1,2019-07-09T07:00:00Z,30.2791,-87.5561,2.951,0.0,11111222 
DISL,ioos:station:DISL:PPTA:1,2019-07-09T08:00:00Z,30.2791,-87.5561,3.309,0.0,11111222 
DISL,ioos:station:DISL:PPTA:1,2019-07-09T09:00:00Z,30.2791,-87.5561,2.766,0.0,11111222 
DISL,ioos:station:DISL:PPTA:1,2019-07-09T10:00:00Z,30.2791,-87.5561,3.05,0.0,11111222 
DISL,ioos:station:DISL:PPTA:1,2019-07-09T11:00:00Z,30.2791,-87.5561,2.907,0.0,11111222 
DISL,ioos:station:DISL:PPTA:1,2019-07-09T12:00:00Z,30.2791,-87.5561,2.692,0.0,11111222 
DISL,ioos:station:DISL:PPTA:1,2019-07-09T13:00:00Z,30.2791,-87.5561,2.568,0.0,11111222 
DISL,ioos:station:DISL:PPTA:1,2019-07-09T14:00:00Z,30.2791,-87.5561,2.945,0.0,11111222 
DISL,ioos:station:DISL:PPTA:1,2019-07-09T15:00:00Z,30.2791,-87.5561,2.754,0.0,11111222 
DISL,ioos:station:DISL:PPTA:1,2019-07-09T16:00:00Z,30.2791,-87.5561,2.871,0.0,11111222 
DISL,ioos:station:DISL:PPTA:1,2019-07-09T17:00:00Z,30.2791,-87.5561,2.834,0.0,11111222 
DISL,ioos:station:DISL:PPTA:1,2019-07-09T18:00:00Z,30.2791,-87.5561,2.856,0.0,11111222 
DISL,ioos:station:DISL:PPTA:1,2019-07-09T19:00:00Z,30.2791,-87.5561,2.902,0.0,11111222 
DISL,ioos:station:DISL:PPTA:1,2019-07-09T20:00:00Z,30.2791,-87.5561,3.113,0.0,11111222 
DISL,ioos:station:DISL:PPTA:1,2019-07-09T21:00:00Z,30.2791,-87.5561,2.862,0.0,11111222 
DISL,ioos:station:DISL:PPTA:1,2019-07-09T22:00:00Z,30.2791,-87.5561,2.856,0.0,11111222 
DISL,ioos:station:DISL:PPTA:1,2019-07-09T23:00:00Z,30.2791,-87.5561,2.658,0.0,11111222 
DISL,ioos:station:DISL:PPTA:1,2019-07-10T00:00:00Z,30.2791,-87.5561,2.736,0.0,11111222 
DISL,ioos:station:DISL:PPTA:1,2019-07-10T01:00:00Z,30.2791,-87.5561,2.666,0.0,11111222 
DISL,ioos:station:DISL:PPTA:1,2019-07-10T02:00:00Z,30.2791,-87.5561,3.159,0.0,11111222 
DISL,ioos:station:DISL:PPTA:1,2019-07-10T03:00:00Z,30.2791,-87.5561,2.908,0.0,11111222 
DISL,ioos:station:DISL:PPTA:1,2019-07-10T04:00:00Z,30.2791,-87.5561,2.738,0.0,11111222 
DISL,ioos:station:DISL:PPTA:1,2019-07-10T05:00:00Z,30.2791,-87.5561,3.055,0.0,11111222 
DISL,ioos:station:DISL:PPTA:1,2019-07-10T06:00:00Z,30.2791,-87.5561,2.754,0.0,11111222 
DISL,ioos:station:DISL:PPTA:1,2019-07-10T07:00:00Z,30.2791,-87.5561,2.424,0.0,11111222 
DISL,ioos:station:DISL:PPTA:1,2019-07-10T08:00:00Z,30.2791,-87.5561,2.431,0.0,11111222 
DISL,ioos:station:DISL:PPTA:1,2019-07-10T09:00:00Z,30.2791,-87.5561,2.745,0.0,11111222 
DISL,ioos:station:DISL:PPTA:1,2019-07-10T11:00:00Z,30.2791,-87.5561,2.499,0.0,11111222 
DISL,ioos:station:DISL:PPTA:1,2019-07-10T12:00:00Z,30.2791,-87.5561,2.552,0.0,11111222 
DISL,ioos:station:DISL:PPTA:1,2019-07-10T13:00:00Z,30.2791,-87.5561,2.316,0.0,11111222 
DISL,ioos:station:DISL:PPTA:1,2019-07-10T14:00:00Z,30.2791,-87.5561,2.527,0.0,11111222 
DISL,ioos:station:DISL:PPTA:1,2019-07-10T15:00:00Z,30.2791,-87.5561,2.378,0.0,11111222 
DISL,ioos:station:DISL:PPTA:1,2019-07-10T16:00:00Z,30.2791,-87.5561,2.499,0.0,11111222 
DISL,ioos:station:DISL:PPTA:1,2019-07-10T17:00:00Z,30.2791,-87.5561,2.539,0.0,11111222 
DISL,ioos:station:DISL:PPTA:1,2019-07-10T18:00:00Z,30.2791,-87.5561,2.606,0.0,11111222 
DISL,ioos:station:DISL:PPTA:1,2019-07-10T19:00:00Z,30.2791,-87.5561,2.445,0.0,11111222 
DISL,ioos:station:DISL:PPTA:1,2019-07-10T20:00:00Z,30.2791,-87.5561,2.667,0.0,11111222 
DISL,ioos:station:DISL:PPTA:1,2019-07-10T21:00:00Z,30.2791,-87.5561,2.637,0.0,11111222 
DISL,ioos:station:DISL:PPTA:1,2019-07-10T22:00:00Z,30.2791,-87.5561,2.791,0.0,11111222 
DISL,ioos:station:DISL:PPTA:1,2019-07-10T23:00:00Z,30.2791,-87.5561,2.488,0.0,11111222 
DISL,ioos:station:DISL:PPTA:1,2019-07-11T00:00:00Z,30.2791,-87.5561,2.676,0.0,11111222 
DISL,ioos:station:DISL:PPTA:1,2019-07-11T01:00:00Z,30.2791,-87.5561,2.425,0.0,11111222 
DISL,ioos:station:DISL:PPTA:1,2019-07-11T02:00:00Z,30.2791,-87.5561,2.671,0.0,11111222 
DISL,ioos:station:DISL:PPTA:1,2019-07-11T03:00:00Z,30.2791,-87.5561,2.485,0.0,11111222 
DISL,ioos:station:DISL:PPTA:1,2019-07-11T04:00:00Z,30.2791,-87.5561,2.87,0.0,11111222 
DISL,ioos:station:DISL:PPTA:1,2019-07-11T05:00:00Z,30.2791,-87.5561,2.457,0.0,11111222 
DISL,ioos:station:DISL:PPTA:1,2019-07-11T06:00:00Z,30.2791,-87.5561,2.491,0.0,11111222 
DISL,ioos:station:DISL:PPTA:1,2019-07-11T07:00:00Z,30.2791,-87.5561,2.581,0.0,11111222 
DISL,ioos:station:DISL:PPTA:1,2019-07-11T08:00:00Z,30.2791,-87.5561,2.41,0.0,11111222 
DISL,ioos:station:DISL:PPTA:1,2019-07-11T09:00:00Z,30.2791,-87.5561,2.423,0.0,11111222 
DISL,ioos:station:DISL:PPTA:1,2019-07-11T10:00:00Z,30.2791,-87.5561,2.516,0.0,11111222 
DISL,ioos:station:DISL:PPTA:1,2019-07-11T11:00:00Z,30.2791,-87.5561,2.429,0.0,11111222 
DISL,ioos:station:DISL:PPTA:1,2019-07-11T12:00:00Z,30.2791,-87.5561,2.483,0.0,11111222 
DISL,ioos:station:DISL:PPTA:1,2019-07-11T13:00:00Z,30.2791,-87.5561,2.534,0.0,11111222 
DISL,ioos:station:DISL:PPTA:1,2019-07-11T14:00:00Z,30.2791,-87.5561,2.417,0.0,11111222 
DISL,ioos:station:DISL:PPTA:1,2019-07-11T15:00:00Z,30.2791,-87.5561,2.519,0.0,11111222 
DISL,ioos:station:DISL:PPTA:1,2019-07-11T16:00:00Z,30.2791,-87.5561,3.068,0.0,11111222 
DISL,ioos:station:DISL:PPTA:1,2019-07-11T17:00:00Z,30.2791,-87.5561,2.586,0.0,11111222 
DISL,ioos:station:DISL:PPTA:1,2019-07-11T18:00:00Z,30.2791,-87.5561,2.614,0.0,11111222 
DISL,ioos:station:DISL:PPTA:1,2019-07-11T19:00:00Z,30.2791,-87.5561,2.638,0.0,11111222 
DISL,ioos:station:DISL:PPTA:1,2019-07-11T20:00:00Z,30.2791,-87.5561,2.543,0.0,11111222 
DISL,ioos:station:DISL:PPTA:1,2019-07-11T21:00:00Z,30.2791,-87.5561,2.31,0.0,11111222 
DISL,ioos:station:DISL:PPTA:1,2019-07-11T22:00:00Z,30.2791,-87.5561,2.428,0.0,11111222 
DISL,ioos:station:DISL:PPTA:1,2019-07-11T23:00:00Z,30.2791,-87.5561,2.767,0.0,11111222 
DISL,ioos:station:DISL:PPTA:1,2019-07-12T00:00:00Z,30.2791,-87.5561,2.514,0.0,11111222 
DISL,ioos:station:DISL:PPTA:1,2019-07-12T01:00:00Z,30.2791,-87.5561,2.531,0.0,11111222 
DISL,ioos:station:DISL:PPTA:1,2019-07-12T02:00:00Z,30.2791,-87.5561,2.489,0.0,11111222 
DISL,ioos:station:DISL:PPTA:1,2019-07-12T03:00:00Z,30.2791,-87.5561,2.372,0.0,11111222 
DISL,ioos:station:DISL:PPTA:1,2019-07-12T04:00:00Z,30.2791,-87.5561,2.321,0.0,11111222 
DISL,ioos:station:DISL:PPTA:1,2019-07-12T05:00:00Z,30.2791,-87.5561,2.555,0.0,11111222 
DISL,ioos:station:DISL:PPTA:1,2019-07-12T06:00:00Z,30.2791,-87.5561,2.915,0.0,11111222 
DISL,ioos:station:DISL:PPTA:1,2019-07-12T07:00:00Z,30.2791,-87.5561,3.012,0.0,11111222 
DISL,ioos:station:DISL:PPTA:1,2019-07-12T08:00:00Z,30.2791,-87.5561,2.756,0.0,11111222 
DISL,ioos:station:DISL:PPTA:1,2019-07-12T09:00:00Z,30.2791,-87.5561,2.861,0.0,11111222 
DISL,ioos:station:DISL:PPTA:1,2019-07-12T10:00:00Z,30.2791,-87.5561,2.831,0.0,11111222 
DISL,ioos:station:DISL:PPTA:1,2019-07-12T11:00:00Z,30.2791,-87.5561,2.637,0.0,11111222 